Location: La Sioule Rivi�re
(46.3664°N, 3.3197°E)
Time: 12:37:39
(UTC+00:00)

Cosmos 2058 - Pass Details

Date: 29 October 2020
Orbit: 561 x 584 km, 82.5° (Epoch: 23 November)

Event Time Altitude Azimuth Distance (km) Brightness Sun altitude
Rises 17:29:20 0° 359° (N) 2,766 6.3 -9.7°
Reaches altitude 10° 17:31:42 10° 10° (N) 1,864 5.3 -10.1°
Maximum altitude 17:35:23 31° 74° (ENE) 998 3.6 -10.8°
Drops below altitude 10° 17:39:03 10° 138° (SE) 1,854 5.2 -11.4°
Sets 17:41:24 0° 148° (SSE) 2,748 6.1 -11.8°
